This is the latest recevied weather packets stored in our database for station/object KC7UNY-13. If no packets are shown the sender has not sent any weather packets the latest 1 day(s).
| Time | Temp. | Humidity | Pressure | Rain* | Wind** | Luminosity | Snow |
|---|---|---|---|---|---|---|---|
| 1778016569 | 25.56° C | 32% | 1010.1 hPa | 0 mm | 0.89 m/s, 303° | 730 W/m² | - |
| 1778016266 | 26.11° C | 31% | 1010.2 hPa | 0 mm | 2.68 m/s, 315° | 807 W/m² | - |
| 1778015962 | 25° C | 32% | 1010.2 hPa | 0 mm | 1.79 m/s, 347° | 806 W/m² | - |
| 1778015660 | 25° C | 33% | 1010.4 hPa | 0 mm | 1.34 m/s, 326° | 245 W/m² | - |
| 1778015356 | 25.56° C | 33% | 1010.4 hPa | 0 mm | 1.79 m/s, 350° | 337 W/m² | - |
| 1778015063 | 25.56° C | 33% | 1010.6 hPa | 0 mm | 2.24 m/s, 279° | 794 W/m² | - |
| 1778014750 | 25.56° C | 33% | 1010.8 hPa | 0 mm | 2.24 m/s, 296° | 843 W/m² | - |
| 1778014449 | 25° C | 34% | 1010.7 hPa | 0 mm | 0.89 m/s, 285° | 878 W/m² | - |
| 1778014145 | 25° C | 35% | 1010.9 hPa | 0 mm | 2.24 m/s, 250° | 937 W/m² | - |
| 1778013843 | 24.44° C | 36% | 1010.8 hPa | 0 mm | 1.79 m/s, 294° | 471 W/m² | - |
| 1778013540 | 23.89° C | 36% | 1010.9 hPa | 0 mm | 0.45 m/s, 6° | 836 W/m² | - |
| 1778013236 | 24.44° C | 37% | 1010.9 hPa | 0 mm | 1.34 m/s, 303° | 267 W/m² | - |
| 1778012933 | 23.89° C | 36% | 1010.9 hPa | 0 mm | 1.34 m/s, 260° | 279 W/m² | - |
| 1778012629 | 23.89° C | 38% | 1010.9 hPa | 0 mm | 0.45 m/s, 329° | 223 W/m² | - |
| 1778012326 | 25° C | 37% | 1010.9 hPa | 0 mm | 2.24 m/s, 264° | 224 W/m² | - |
| 1778012023 | 25.56° C | 37% | 1010.7 hPa | 0 mm | 0.89 m/s, 288° | 875 W/m² | - |
| 1778011722 | 25° C | 40% | 1010.9 hPa | 0 mm | 0.45 m/s, 356° | 881 W/m² | - |
| 1778011418 | 25° C | 39% | 1011.1 hPa | 0 mm | 1.79 m/s, 312° | 903 W/m² | - |
| 1778011114 | 24.44° C | 40% | 1011 hPa | 0 mm | 2.24 m/s, 10° | 908 W/m² | - |
| 1778010811 | 24.44° C | 40% | 1011 hPa | 0 mm | 0.89 m/s, 278° | 895 W/m² | - |
| 1778010508 | 23.89° C | 41% | 1011.1 hPa | 0 mm | 2.24 m/s, 183° | 875 W/m² | - |
| 1778010205 | 23.89° C | 41% | 1011.2 hPa | 0 mm | 0.45 m/s, 310° | 859 W/m² | - |
| 1778009900 | 23.89° C | 41% | 1011.3 hPa | 0 mm | 0.89 m/s, 278° | 870 W/m² | - |
| 1778009598 | 23.89° C | 40% | 1011.3 hPa | 0 mm | 1.34 m/s, 255° | 962 W/m² | - |
| 1778009296 | 23.89° C | 41% | 1011.3 hPa | 0 mm | 2.68 m/s, 274° | 264 W/m² | - |
* Rain latest hour (hover to see other rain measurements)
** Current wind speed in m/s (hover to see current wind gust speed)